Weather in Caguas

Puerto Rico     18°14′03″N   66°02′09″W
temp.,
°C
wind,
m/s
gust,
m/s
humid.,
%
clouds,
%
prec.,
mm/h
press.,
hPa
HPBL,
m
11 may, tue
tue1123:00+23e2588100 0.0 1019246
02:00+22ese2591100 0.1 1017209
05:00+23ese2694100 0.2 1017326
08:00+25ese587895 0.6 1019817
11:00+29ese795943 0.0 10181352
14:00+30ese685692 0.2 10171482
17:00+27ese5762100 0.1 10171107
20:00+23ese2490100 0.1 1018167
12 may, wed
wed1223:00+23ese129488 0.2 1019104
02:00+22ese259598 0.6 1017244
05:00+23ese2589100 0.2 1017221
08:00+25e3676100 0.2 1019889
11:00+29e565694 0.1 10181342
14:00+29ese5649100 0.1 10171342
17:00+27e4557100 0.0 10161116
20:00+22ese2388100 0.0 101779
13 may, thu
thu1323:00+23ese248886 0.2 1018192
02:00+23ese259152 0.7 1017242
05:00+21ese229322 0.3 101741
08:00+25ese467531 0.4 1018826
11:00+30ese67490 0.1 10171442
14:00+30ese66490 0.1 10161720
17:00+28ese566245 0.1 10151200
20:00+23ese229225 0.2 101774
14 may, fri
fri1423:00+23ese249385 0.4 1017185
02:00+23ese258842 0.9 1016218
05:00+22ese248624 0.1 101666
08:00+26ese367535 0.1 1017865
11:00+30ese67510 0.1 10171564
14:00+30se66544 0.2 10151652
17:00+27ese566616 0.2 10151085
20:00+23ese239226 0.3 101685
15 may, sat
sat1523:00+22se229426 0.1 101772
02:00+22ese229663 0.3 101579
05:00+22se239354 0.4 101599
08:00+25se467752 0.8 1017777
11:00+29se55544 0.1 10161316
14:00+31se55400 0.1 10151459
17:00+28se55482 0.0 10141013
20:00+22sse34874 0.0 101586